TimeCST,TemperatureF,Dew PointF,Humidity,Sea Level PressureIn,VisibilityMPH,Wind Direction,Wind SpeedMPH,Gust SpeedMPH,PrecipitationIn,Events,Conditions,WindDirDegrees,DateUTC
12:53 AM,59.0,55.0,87,30.03,10.0,South,8.1,-,N/A,,Overcast,170,2013-02-19 06:53:00
1:39 AM,60.8,55.4,82,30.01,10.0,SSE,11.5,21.9,0.00,,Overcast,160,2013-02-19 07:39:00
1:53 AM,61.0,55.9,83,30.00,10.0,South,12.7,21.9,0.00,,Overcast,180,2013-02-19 07:53:00
2:53 AM,60.1,57.9,93,30.01,9.0,South,8.1,16.1,0.01,Rain,Light Rain,190,2013-02-19 08:53:00
3:53 AM,63.0,61.0,93,30.00,9.0,Variable,5.8,16.1,0.05,Rain,Light Rain,0,2013-02-19 09:53:00
4:53 AM,63.0,61.0,93,30.01,6.0,SW,12.7,24.2,0.07,Rain,Rain,220,2013-02-19 10:53:00
5:53 AM,60.1,59.0,96,30.04,5.0,SW,6.9,-,0.09,Rain,Heavy Rain,230,2013-02-19 11:53:00
6:00 AM,60.8,59.0,94,30.04,5.0,WSW,4.6,-,0.00,Rain,Light Rain,250,2013-02-19 12:00:00
6:53 AM,59.0,59.0,100,30.06,10.0,Variable,3.5,-,0.00,,Mostly Cloudy,0,2013-02-19 12:53:00
7:53 AM,61.0,57.0,87,30.10,10.0,NNW,12.7,-,N/A,,Overcast,330,2013-02-19 13:53:00
8:12 AM,60.8,57.2,88,30.10,10.0,NNW,12.7,-,N/A,,Mostly Cloudy,330,2013-02-19 14:12:00
8:53 AM,61.0,55.0,81,30.13,10.0,NNW,17.3,-,N/A,,Overcast,330,2013-02-19 14:53:00
9:53 AM,62.1,55.0,78,30.14,10.0,North,15.0,-,N/A,,Mostly Cloudy,350,2013-02-19 15:53:00
10:53 AM,64.9,53.1,65,30.16,10.0,NNW,19.6,-,N/A,,Mostly Cloudy,330,2013-02-19 16:53:00
12:53 PM,69.1,46.9,45,30.13,10.0,NNW,12.7,26.5,N/A,,Partly Cloudy,340,2013-02-19 18:53:00
1:53 PM,69.1,41.0,36,30.13,10.0,NNW,12.7,-,N/A,,Clear,340,2013-02-19 19:53:00
2:53 PM,66.9,36.0,32,30.13,10.0,North,15.0,21.9,N/A,,Clear,10,2013-02-19 20:53:00
3:53 PM,66.9,30.0,25,30.14,10.0,NNW,16.1,-,N/A,,Clear,330,2013-02-19 21:53:00
4:53 PM,64.0,28.0,26,30.15,10.0,NNW,16.1,-,N/A,,Clear,340,2013-02-19 22:53:00
6:53 PM,53.1,32.0,45,30.18,10.0,NNW,10.4,-,N/A,,Clear,340,2013-02-20 00:53:00
7:53 PM,55.9,26.1,32,30.19,10.0,North,10.4,-,N/A,,Clear,350,2013-02-20 01:53:00
8:53 PM,52.0,28.9,41,30.21,10.0,North,8.1,-,N/A,,Clear,350,2013-02-20 02:53:00
9:53 PM,45.0,30.9,58,30.22,10.0,NNW,6.9,-,N/A,,Clear,340,2013-02-20 03:53:00
10:53 PM,45.0,30.9,58,30.22,10.0,North,9.2,-,N/A,,Clear,350,2013-02-20 04:53:00